Temperature
17 17 18 18 18 18 19 19 20 20 20 20 20 20 20 20 20 20 19 19 19 19 19 19 19 18 18 18 18 18 18 18 18 18 17 17 17 17 17 17 17 17 17
16 16 17 17 17 17 18 18 19 19 20 20 20 20 20 20 20 20 19 19 19 19 19 18 18 18 18 18 18 18 18 18 18 17 17 17 17 17 17 17 17 17 17
14 15 16 16 16 16 16 17 18 18 19 19 20 20 19 19 19 19 19 19 18 18 18 18 18 18 18 18 18 18 18 17 17 17 17 17 17 17 17 17 17 17 17
14 14 15 15 15 15 15 16 16 17 18 19 19 19 19 19 19 19 18 18 18 18 18 18 18 18 18 18 17 17 17 17 17 17 17 17 17 17 17 17 17 17 17
13 13 14 14 14 14 15 15 15 16 17 17 18 18 19 19 19 18 18 17 17 17 17 17 17 17 17 17 17 17 17 17 17 16 16 16 16 16 16 16 17 17 17
12 13 13 13 14 14 14 14 14 15 15 16 16 17 17 18 18 18 17 17 17 16 16 16 16 16 16 16 16 16 16 16 16 16 16 16 16 16 16 16 16 16 17
12 12 12 13 13 13 13 13 13 14 14 15 15 15 16 16 16 16 16 16 16 16 16 16 16 16 16 16 16 16 16 16 16 16 16 16 15 15 15 15 15 16 16
11 12 12 12 12 13 13 13 13 13 13 14 14 14 14 14 15 15 15 15 15 15 15 15 15 15 15 15 15 15 15 15 15 15 15 15 15 15 15 15 15 15 15
11 12 12 12 12 12 12 13 13 13 13 13 13 13 14 14 14 14 14 14 14 14 14 14 14 14 14 14 14 15 15 15 15 15 15 15 15 15 15 15 15 14 14
11 12 12 12 12 12 12 12 13 12 12 13 13 13 13 13 13 13 13 13 13 14 14 14 14 14 14 14 14 14 14 14 15 15 15 15 15 15 15 14 14 14 14
12 12 12 12 12 12 12 12 12 12 13 13 13 13 13 13 13 13 13 13 13 13 13 13 13 13 13 14 14 14 14 15 15 15 15 15 15 15 14 14 14 14 14
12 12 12 12 12 12 12 12 13 13 13 13 13 13 13 13 13 13 13 13 13 13 13 13 14 14 14 14 14 14 14 15 15 15 15 15 15 14 14 14 14 14 14
13 13 13 13 12 12 12 12 12 12 13 13 13 13 13 13 13 13 14 14 14 14 14 14 14 14 14 14 14 14 15 15 15 15 15 15 15 15 14 14 14 14 14
14 13 13 13 13 12 12 12 12 12 12 12 13 13 13 13 13 13 13 14 14 14 14 14 14 14 14 14 14 14 14 15 15 15 15 15 15 15 15 15 14 14 14
14 14 14 13 13 13 12 12 12 12 12 12 12 12 12 12 12 13 13 13 13 13 13 14 14 14 14 14 14 14 14 14 15 15 15 15 15 15 15 15 15 14 14
14 14 14 14 13 13 13 12 12 12 12 12 12 12 12 12 12 12 12 12 12 12 13 13 13 13 13 14 14 14 14 14 14 15 15 15 15 14 14 15 14 14 14
15 15 14 14 14 13 13 13 12 12 12 12 12 11 12 12 12 12 12 12 12 12 12 12 12 12 12 13 13 13 14 14 14 14 14 14 14 14 14 14 14 14 14
15 15 15 15 14 14 13 13 13 12 12 12 11 11 11 11 11 11 11 11 11 11 11 11 11 12 12 12 12 12 13 13 13 14 14 14 14 14 14 14 14 14 14
15 15 15 15 14 14 14 14 13 13 12 12 11 11 11 11 11 11 11 11 11 11 11 11 11 11 11 11 12 12 12 12 13 13 13 13 13 14 14 14 14 14 14
15 15 15 15 15 14 14 14 14 13 12 12 12 11 11 11 11 11 11 10 10 10 10 11 11 11 11 11 11 11 12 12 12 12 12 13 13 13 13 14 14 14 14
15 15 15 15 15 15 14 14 14 13 13 12 12 12 11 11 11 11 11 10 10 10 10 10 10 10 10 11 11 11 11 11 11 11 12 12 12 13 13 13 13 14 14
15 15 15 15 15 15 14 14 14 13 13 13 12 12 11 11 11 11 11 10 10 10 10 10 10 10 10 10 10 10 10 10 10 11 11 11 12 12 12 13 13 13 13
14 15 15 15 15 15 15 14 14 14 13 13 12 12 11 11 11 11 11 10 10 10 10 10 10 10 10 10 10 10 10 10 10 10 11 11 11 11 12 12 12 13 13
15 15 15 15 15 15 14 14 14 14 13 13 12 12 11 11 11 11 10 10 10 10 10 10 10 9 10 10 10 10 10 10 10 10 10 11 11 11 11 12 12 12 12
15 15 14 14 14 14 14 14 14 14 13 13 12 12 11 11 11 11 10 10 10 10 10 9 9 9 9 9 9 9 9 10 10 10 10 10 10 11 11 11 11 12 12
15 15 15 15 14 15 15 14 14 14 13 13 12 12 12 11 11 11 10 10 10 9 9 9 9 9 8 8 9 9 9 9 10 10 10 10 10 10 11 11 11 11 11
Wind_Speed
11 12 14 13 12 13 13 13 13 11 7 3 2 4 7 7 6 6 7 8 9 11 9 7 7 7 7 7 7 5 5 3 3 3 2 3 2 3 3 3 4 6 11
16 16 15 15 14 14 13 11 11 11 9 5 3 3 4 4 5 4 4 5 6 7 7 8 7 7 6 7 6 5 4 2 3 4 2 1 4 3 2 2 5 6 7
15 16 15 14 14 14 13 12 11 11 11 9 4 1 1 1 1 2 2 2 3 4 5 6 6 6 6 7 6 6 6 4 2 3 4 4 4 3 3 2 2 4 5
14 13 13 13 13 12 12 11 11 11 11 10 6 2 3 4 5 5 4 4 3 2 3 4 5 6 5 6 6 5 4 5 4 2 2 3 4 3 2 3 2 2 4
14 13 12 12 11 12 11 11 11 11 11 11 8 3 0 2 3 5 6 5 4 3 2 2 3 4 4 5 5 5 5 4 4 3 3 2 2 2 3 3 3 2 2
13 12 11 10 10 10 10 10 10 10 10 10 10 7 3 3 5 5 6 5 4 4 4 3 3 4 4 4 5 5 5 5 5 4 4 4 3 4 4 5 4 3 3
12 11 11 11 11 11 10 10 9 9 10 10 10 8 7 5 4 4 5 5 4 3 3 4 3 3 4 4 4 4 4 5 5 5 4 4 4 4 4 4 3 3 3
11 11 11 10 10 10 9 9 8 8 9 9 8 8 7 5 5 5 4 4 2 2 3 3 3 3 2 2 2 2 3 4 5 6 5 4 4 4 4 5 4 2 2
12 11 11 10 10 9 8 8 8 8 8 8 8 7 7 6 5 5 4 3 2 2 2 2 2 2 1 1 1 2 3 4 4 5 5 4 4 4 4 4 4 5 3
12 12 11 10 10 9 7 7 7 7 7 8 7 6 6 5 4 4 4 3 2 2 2 2 1 1 1 1 1 2 2 4 4 4 5 4 3 4 4 4 4 4 5
10 10 9 9 8 9 9 8 8 7 7 7 7 7 6 5 4 3 2 2 2 2 1 2 1 2 2 2 2 3 4 5 4 4 5 5 4 4 4 3 3 4 4
8 7 8 8 9 10 9 9 9 8 7 6 6 7 7 6 6 5 4 3 2 2 2 2 2 3 3 2 2 3 4 5 5 5 5 5 4 5 4 4 4 4 4
7 7 7 8 8 8 8 8 8 8 8 8 8 8 9 9 8 8 6 6 5 5 6 5 5 5 4 4 3 2 3 3 4 4 5 5 5 5 4 4 4 3 3
7 7 7 7 7 7 7 7 8 8 8 9 9 10 9 9 8 8 9 9 8 8 8 8 7 7 7 6 5 4 3 3 2 2 4 5 6 6 6 4 4 3 2
8 7 6 5 6 6 6 7 7 8 8 8 9 9 8 8 8 8 9 9 9 10 8 8 8 7 6 6 5 4 3 2 2 1 3 4 6 8 6 4 4 4 3
9 8 7 5 5 5 5 5 6 6 6 8 8 8 8 8 9 8 8 9 9 8 8 8 7 8 8 10 9 5 2 1 0 1 1 1 4 6 7 7 6 6 4
8 8 7 5 3 2 2 3 4 5 6 6 7 7 7 8 8 8 8 8 7 7 8 7 7 7 9 15 13 10 4 2 1 1 1 2 3 4 4 4 5 3 3
7 8 7 5 3 1 1 2 3 4 5 5 6 6 7 7 7 7 7 7 5 6 6 6 7 7 11 17 16 12 7 5 5 3 2 4 3 3 5 5 4 2 1
4 5 5 3 3 1 0 2 2 3 4 4 5 5 5 6 7 7 6 5 5 5 5 5 7 8 10 17 16 12 6 6 7 7 6 4 4 4 6 6 5 3 1
5 5 6 5 5 3 1 2 1 2 2 2 3 4 4 6 6 6 6 5 5 6 6 8 8 8 9 16 17 13 5 5 5 5 6 7 5 4 5 6 6 6 3
5 6 7 6 6 4 0 1 1 2 3 1 3 4 5 5 6 6 6 6 7 7 7 8 7 8 9 13 16 14 5 4 3 3 3 4 5 4 4 5 5 6 6
6 6 6 7 7 5 1 1 3 4 1 2 4 5 5 5 6 7 7 7 7 8 7 7 7 7 8 10 13 15 11 6 2 2 2 3 4 4 4 3 4 6 6
5 5 6 7 8 7 3 3 4 3 1 3 5 5 6 6 6 6 7 6 6 6 6 6 6 6 7 9 15 14 13 10 4 2 3 3 5 6 5 5 5 5 5
5 5 6 7 7 7 6 5 5 2 4 5 5 5 5 5 6 5 5 5 5 5 5 6 6 6 6 8 8 8 7 8 6 5 6 8 9 7 6 6 5 4 4
4 4 5 5 6 6 7 7 6 3 4 5 5 5 4 5 5 5 4 4 4 3 3 3 4 5 6 8 11 8 7 6 5 5 6 7 6 6 6 6 6 5 5
3 5 6 5 5 5 7 7 6 3 4 4 4 4 4 4 4 4 3 5 3 5 6 5 4 4 6 8 11 14 15 14 12 9 8 8 8 8 7 7 7 6 6
Wind_Direction
10 15 22 23 22 21 16 11 6 359 355 334 245 213 209 201 196 196 188 188 187 182 173 170 168 165 162 164 154 140 135 134 135 101 42 349 329 273 237 195 176 192 197
9 11 14 17 17 13 9 6 359 350 346 326 274 240 223 208 190 182 168 169 172 175 176 164 162 160 152 150 151 143 140 145 139 131 116 337 330 316 304 210 188 197 193
5 4 5 9 9 9 4 360 352 348 343 334 312 279 152 112 138 159 170 150 155 170 165 168 161 163 161 165 164 157 153 165 178 153 149 164 221 287 318 308 228 192 189
359 1 2 3 4 1 358 355 353 352 349 345 337 277 199 191 187 171 169 141 130 155 160 164 165 164 165 165 170 164 160 157 177 188 181 165 159 167 292 319 321 236 211
353 357 359 357 357 355 355 354 354 357 355 354 351 344 170 167 148 142 141 134 126 120 121 158 161 160 165 172 173 166 168 167 171 178 169 162 167 164 170 258 302 324 270
351 353 354 355 354 353 355 355 357 359 359 2 6 12 39 91 126 136 145 146 138 134 141 148 157 161 168 176 175 172 176 181 177 182 179 172 172 188 181 210 238 262 286
350 352 356 356 352 351 353 355 1 2 0 7 14 21 32 53 86 112 126 135 137 145 159 146 163 164 169 176 175 178 186 183 184 190 193 191 191 176 170 179 206 230 281
352 353 355 352 348 347 352 355 1 4 2 7 14 23 34 45 54 64 85 99 109 135 151 148 153 146 151 165 173 180 199 194 202 202 191 188 188 180 174 170 165 189 279
355 357 355 352 350 348 354 357 3 7 6 9 16 25 35 48 58 62 67 74 76 94 106 128 130 124 127 172 203 206 203 186 192 194 190 184 187 182 179 169 166 168 205
354 357 355 352 353 351 356 4 11 11 11 13 17 24 26 36 47 57 60 58 47 46 51 58 52 6 299 287 268 249 212 187 188 183 175 180 184 184 179 178 181 180 184
343 346 348 348 353 3 10 13 11 13 15 17 17 20 18 21 31 35 24 21 17 9 7 351 338 306 274 255 243 239 215 195 194 190 184 196 189 188 191 184 183 188 182
338 340 343 351 1 12 14 15 15 17 10 10 19 20 20 26 31 29 22 17 6 359 355 353 351 338 324 317 273 254 239 212 202 198 194 210 200 196 196 192 198 197 193
336 342 348 355 1 10 12 14 17 19 16 20 26 29 29 31 30 26 27 36 42 48 45 47 41 32 28 23 4 319 284 258 237 213 200 205 187 194 196 196 199 198 193
343 355 356 356 360 4 5 10 16 19 26 27 31 33 30 29 31 35 39 42 47 56 60 60 61 57 47 36 26 17 357 335 299 255 220 204 189 192 189 188 191 181 171
3 5 2 360 0 7 10 15 18 18 24 31 33 29 28 32 38 43 45 48 53 58 58 63 57 48 45 30 20 8 8 7 352 296 230 213 200 195 180 169 171 161 153
6 5 4 7 7 14 17 20 21 18 26 34 30 25 30 34 37 40 45 51 50 50 55 58 55 45 36 27 22 13 350 339 330 290 275 197 177 185 178 167 162 156 151
359 360 360 360 1 8 27 28 23 29 35 32 27 25 30 34 32 38 42 44 44 46 48 44 42 34 23 30 29 30 32 22 335 225 176 146 146 148 152 157 146 136 135
355 352 350 351 350 5 14 34 44 44 39 29 25 26 34 36 33 37 38 37 38 42 41 38 34 30 26 30 29 30 30 33 32 34 86 117 120 155 165 160 150 141 100
343 336 335 337 345 344 240 102 59 38 35 25 22 27 40 42 38 34 28 26 36 38 34 30 31 29 17 24 28 33 27 42 39 39 53 84 102 131 156 152 150 135 74
338 338 340 350 353 325 258 116 86 17 2 1 29 49 55 51 44 34 29 29 43 43 41 38 34 31 21 21 27 31 33 41 36 35 35 46 63 80 131 148 146 144 147
338 348 353 350 336 321 293 132 252 277 278 355 54 61 59 59 54 46 40 43 48 46 42 39 30 25 17 16 22 26 30 29 33 33 18 7 26 55 89 127 144 158 151
346 353 354 344 338 344 8 330 295 278 287 78 77 68 58 62 62 55 44 39 43 45 34 28 20 13 7 8 13 22 28 32 48 19 345 337 15 51 75 102 128 133 130
350 348 353 350 353 2 25 2 314 306 109 106 102 95 76 62 59 60 53 42 38 42 33 27 22 8 2 3 11 17 23 27 33 11 14 37 51 61 62 71 96 107 118
347 347 357 2 356 356 12 4 346 29 113 124 126 121 100 79 62 54 50 51 40 38 35 29 19 6 3 7 6 7 13 18 27 28 39 56 64 63 58 58 66 81 108
342 351 356 351 348 357 5 1 4 50 102 124 132 132 125 113 89 66 48 50 35 29 33 16 4 6 6 0 14 29 27 24 27 43 53 52 52 56 53 54 58 63 76
349 354 352 348 347 359 359 356 0 50 114 125 136 146 149 140 126 112 70 26 11 9 18 17 14 353 0 14 34 39 40 39 44 61 61 58 58 59 59 61 60 58 64
Height
1535 1532 1529 1526 1524 1521 1519 1517 1516 1515 1515 1516 1516 1518 1518 1519 1521 1523 1525 1527 1529 1531 1533 1535 1537 1539 1541 1543 1545 1547 1549 1550 1552 1553 1554 1555 1555 1555 1556 1556 1556 1557 1557
1535 1531 1528 1526 1523 1520 1518 1515 1514 1513 1512 1512 1512 1513 1515 1516 1517 1520 1522 1524 1526 1528 1529 1531 1533 1535 1537 1540 1542 1543 1545 1547 1548 1550 1551 1552 1553 1553 1553 1554 1554 1555 1556
1538 1533 1529 1526 1523 1520 1517 1514 1512 1510 1509 1508 1508 1509 1510 1512 1513 1514 1516 1518 1521 1524 1526 1527 1529 1531 1533 1535 1537 1539 1541 1543 1544 1546 1547 1548 1548 1549 1550 1550 1552 1552 1553
1540 1535 1531 1527 1524 1521 1517 1514 1511 1508 1506 1504 1504 1504 1505 1506 1507 1508 1511 1512 1515 1519 1522 1524 1525 1527 1529 1531 1532 1534 1536 1538 1540 1541 1543 1544 1545 1546 1547 1548 1549 1550 1551
1542 1537 1534 1529 1525 1521 1517 1514 1510 1507 1504 1502 1500 1499 1500 1501 1502 1504 1506 1507 1510 1512 1516 1519 1521 1523 1525 1527 1528 1530 1532 1533 1534 1536 1538 1539 1541 1542 1544 1545 1546 1547 1548
1543 1539 1535 1530 1526 1522 1518 1514 1510 1506 1503 1500 1498 1497 1497 1497 1498 1500 1502 1503 1506 1508 1510 1514 1517 1518 1521 1523 1525 1526 1527 1529 1530 1531 1533 1535 1536 1538 1539 1541 1542 1544 1545
1543 1539 1535 1530 1526 1522 1519 1515 1511 1507 1504 1501 1498 1497 1496 1496 1497 1498 1500 1501 1502 1505 1508 1511 1513 1514 1517 1520 1521 1523 1524 1525 1526 1528 1529 1531 1533 1534 1536 1537 1539 1540 1541
1544 1540 1535 1531 1527 1523 1519 1516 1512 1509 1506 1503 1500 1498 1497 1497 1497 1498 1499 1500 1502 1504 1506 1507 1510 1512 1514 1517 1518 1520 1521 1522 1524 1525 1527 1528 1529 1531 1532 1534 1535 1536 1537
1544 1540 1536 1532 1528 1524 1520 1517 1514 1511 1508 1505 1503 1501 1500 1499 1499 1499 1499 1500 1501 1503 1504 1505 1507 1509 1512 1514 1516 1518 1519 1520 1522 1523 1525 1526 1527 1528 1529 1530 1531 1533 1533
1546 1541 1537 1533 1529 1525 1522 1519 1516 1513 1511 1508 1506 1504 1503 1502 1502 1501 1501 1502 1502 1503 1504 1505 1506 1508 1510 1512 1514 1516 1517 1519 1520 1522 1523 1524 1525 1525 1526 1527 1528 1528 1529
1548 1544 1539 1535 1531 1527 1523 1521 1518 1516 1514 1512 1510 1508 1507 1505 1505 1504 1504 1504 1504 1504 1505 1505 1506 1508 1509 1511 1513 1514 1516 1517 1519 1520 1521 1522 1523 1524 1524 1524 1525 1525 1526
1551 1547 1542 1538 1534 1530 1526 1523 1521 1518 1516 1514 1513 1511 1510 1509 1508 1507 1506 1506 1506 1506 1506 1507 1508 1508 1510 1511 1512 1514 1515 1516 1517 1518 1519 1521 1521 1522 1522 1522 1522 1522 1523
1553 1549 1545 1541 1538 1534 1531 1527 1524 1521 1519 1517 1515 1513 1512 1511 1510 1509 1509 1508 1508 1508 1508 1508 1508 1509 1509 1510 1511 1513 1514 1515 1516 1517 1518 1519 1520 1520 1520 1520 1520 1520 1520
1555 1552 1549 1546 1542 1539 1535 1532 1528 1525 1523 1520 1518 1516 1515 1513 1512 1511 1510 1509 1509 1508 1508 1508 1508 1508 1509 1509 1510 1511 1512 1513 1515 1516 1517 1518 1518 1519 1519 1519 1518 1518 1518
1558 1555 1552 1549 1546 1543 1539 1536 1533 1530 1527 1524 1522 1520 1518 1517 1515 1513 1512 1510 1509 1509 1508 1508 1508 1508 1508 1508 1508 1509 1510 1511 1512 1513 1514 1515 1517 1517 1518 1518 1517 1517 1517
1560 1558 1555 1552 1549 1546 1543 1540 1537 1534 1531 1528 1526 1524 1522 1520 1518 1516 1514 1513 1511 1510 1509 1508 1508 1507 1507 1507 1507 1507 1507 1508 1509 1510 1512 1513 1514 1515 1516 1517 1517 1517 1517
1563 1560 1557 1555 1552 1549 1546 1543 1540 1538 1535 1532 1530 1527 1525 1523 1520 1519 1517 1515 1513 1512 1511 1509 1508 1507 1506 1506 1505 1504 1505 1505 1506 1507 1509 1511 1512 1514 1515 1516 1516 1517 1517
1565 1562 1560 1557 1554 1552 1549 1546 1543 1541 1538 1535 1533 1531 1528 1525 1523 1521 1519 1517 1516 1514 1513 1511 1510 1508 1507 1505 1504 1503 1503 1503 1504 1505 1506 1508 1510 1512 1514 1515 1516 1516 1517
1566 1564 1561 1559 1556 1553 1551 1548 1546 1543 1541 1538 1536 1533 1531 1528 1526 1523 1522 1520 1519 1517 1515 1513 1512 1510 1508 1506 1504 1503 1502 1502 1502 1503 1504 1506 1508 1510 1511 1513 1515 1516 1517
1567 1564 1562 1559 1557 1554 1552 1550 1548 1545 1543 1541 1539 1536 1533 1530 1528 1525 1524 1522 1521 1519 1517 1515 1513 1511 1509 1507 1505 1503 1502 1502 1501 1502 1502 1504 1505 1507 1509 1511 1513 1515 1516
1567 1565 1562 1560 1557 1555 1553 1551 1549 1547 1545 1543 1541 1538 1536 1533 1530 1528 1526 1525 1523 1521 1519 1517 1515 1513 1510 1508 1506 1504 1502 1501 1501 1501 1501 1502 1503 1505 1507 1509 1512 1514 1515
1567 1565 1563 1560 1558 1556 1554 1552 1550 1548 1546 1545 1543 1540 1538 1535 1533 1530 1529 1527 1525 1523 1521 1519 1517 1514 1511 1509 1506 1504 1502 1501 1500 1500 1500 1501 1502 1503 1505 1508 1510 1512 1515
1567 1565 1563 1561 1559 1557 1554 1552 1550 1548 1547 1546 1544 1542 1540 1538 1536 1533 1531 1530 1528 1526 1523 1521 1519 1516 1514 1511 1508 1506 1504 1502 1501 1500 1500 1500 1501 1503 1505 1507 1509 1512 1514
1568 1566 1564 1562 1560 1557 1555 1553 1551 1549 1548 1546 1545 1544 1542 1540 1538 1536 1534 1532 1530 1528 1526 1523 1521 1519 1516 1513 1510 1508 1506 1504 1503 1502 1501 1502 1502 1504 1505 1507 1509 1511 1514
1568 1566 1564 1562 1560 1558 1556 1554 1552 1550 1549 1547 1546 1545 1544 1542 1541 1539 1537 1535 1533 1531 1528 1526 1524 1521 1518 1516 1513 1511 1508 1506 1505 1504 1504 1504 1505 1506 1507 1509 1510 1512 1514
1568 1566 1564 1563 1561 1559 1557 1554 1552 1551 1550 1548 1547 1547 1545 1544 1543 1541 1539 1538 1535 1533 1531 1529 1527 1524 1522 1520 1517 1515 1512 1510 1509 1508 1507 1507 1508 1509 1510 1511 1512 1514 1515